Weather History for KWWD - January, 2014

Change the Weather History Date:

Saturday, January 4, 2014

  Actual Average Record
Temperature  
Mean Temperature 20 °F -  
Max Temperature 37 °F 42 °F 64 °F (1998)
Min Temperature 5 °F 30 °F 5 °F (2014)
Degree Days  
Heating Degree Days 45    
Moisture  
Dew Point 11 °F    
Average Humidity 65    
Maximum Humidity 86    
Minimum Humidity 48    
Precipitation  
Precipitation 0.00 in - - ()
Sea Level Pressure  
Sea Level Pressure 30.44 in    
Wind  
Wind Speed 4 mph (South)    
Max Wind Speed 14 mph    
Max Gust Speed -    
Visibility 10 miles    
Events      
Averages and records for this station are not official NWS values.
T = Trace of Precipitation, MM = Missing Value Source: NWS Daily Summary

Daily Weather History Graph

Daily Weather History Graph

Search for Another Location

Airport or City:

Trip Planner

Search our weather history database for the weather conditions in past years. The results will help you decide how hot, cold, wet, or windy it might be!

Date:

Astronomy

Jan. 04, 2014 Rise Set
Actual Time 7:18 AM EST 4:50 PM EST
Civil Twilight 6:49 AM EST 5:20 PM EST
Nautical Twilight 6:15 AM EST 5:53 PM EST
Astronomical Twilight 5:43 AM EST 6:26 PM EST
Moon 9:24 AM EST 9:05 PM EST
Length of Visible Light 10h 31m
Length of Day
9h 31m
Waxing Crescent, 15% of the Moon is Illuminated
Jan 4
Waxing Crescent
Jan 7
First Quarter
Jan 15
Full
Jan 24
Last Quarter
Jan 30
New

Hourly Weather History & Observations

Time (EST) Temp. Windchill Dew Point Humidity Pressure Visibility Wind Dir Wind Speed Gust Speed Precip Events Conditions
12:15 AM 10.4 °F 0.8 °F -0.4 °F 62% 30.50 in 10.0 mi ENE 5.8 mph - N/A   Clear
12:35 AM 10.4 °F 4.0 °F -2.2 °F 57% 30.50 in 10.0 mi North 3.5 mph - N/A   Clear
12:55 AM 10.4 °F - -2.2 °F 57% 30.49 in 10.0 mi Calm Calm - N/A   Clear
1:15 AM 10.4 °F 4.0 °F -2.2 °F 57% 30.50 in 10.0 mi NNE 3.5 mph - N/A   Clear
1:35 AM 10.4 °F - -2.2 °F 57% 30.51 in 10.0 mi Calm Calm - N/A   Clear
1:55 AM 8.6 °F 2.0 °F -2.2 °F 62% 30.51 in 10.0 mi ENE 3.5 mph - N/A   Clear
2:15 AM 8.6 °F - -0.4 °F 67% 30.51 in 10.0 mi Calm Calm - N/A   Clear
2:35 AM 8.6 °F - -0.4 °F 67% 30.51 in 10.0 mi Calm Calm - N/A   Clear
2:55 AM 8.6 °F - -2.2 °F 62% 30.52 in 10.0 mi Calm Calm - N/A   Clear
3:15 AM 6.8 °F - -0.4 °F 72% 30.52 in 10.0 mi Calm Calm - N/A   Clear
3:35 AM 8.6 °F 2.0 °F -0.4 °F 67% 30.51 in 10.0 mi North 3.5 mph - N/A   Clear
3:55 AM 8.6 °F 2.0 °F -2.2 °F 62% 30.51 in 10.0 mi North 3.5 mph - N/A   Clear
4:15 AM 8.6 °F - -2.2 °F 62% 30.51 in 10.0 mi Calm Calm - N/A   Clear
4:35 AM 6.8 °F -0.1 °F -0.4 °F 72% 30.51 in 10.0 mi North 3.5 mph - N/A   Clear
4:55 AM 5.0 °F - -2.2 °F 72% 30.52 in 10.0 mi Calm Calm - N/A   Clear
5:15 AM 6.8 °F - -0.4 °F 72% 30.53 in 10.0 mi Calm Calm - N/A   Clear
5:35 AM 6.8 °F - -0.4 °F 72% 30.53 in 10.0 mi Calm Calm - N/A   Clear
5:55 AM 6.8 °F - -0.4 °F 72% 30.53 in 10.0 mi Calm Calm - N/A   Clear
6:15 AM 5.0 °F - -0.4 °F 78% 30.53 in 10.0 mi Calm Calm - N/A   Clear
6:35 AM 5.0 °F - -0.4 °F 78% 30.53 in 10.0 mi Calm Calm - N/A   Clear
6:55 AM 5.0 °F - -0.4 °F 78% 30.54 in 10.0 mi Calm Calm - N/A   Clear
7:15 AM 5.0 °F - 1.4 °F 85% 30.55 in 10.0 mi Calm Calm - N/A   Clear
7:35 AM 5.0 °F - -0.4 °F 78% 30.56 in 10.0 mi Calm Calm - N/A   Clear
7:55 AM 6.8 °F - -0.4 °F 72% 30.56 in 10.0 mi Calm Calm - N/A   Clear
8:15 AM 6.8 °F - 1.4 °F 79% 30.57 in 10.0 mi Calm Calm - N/A   Clear
8:35 AM 8.6 °F - 1.4 °F 73% 30.57 in 10.0 mi Calm Calm - N/A   Clear
8:55 AM 10.4 °F - 3.2 °F 73% 30.56 in 10.0 mi Calm Calm - N/A   Clear
9:15 AM 14.0 °F - 5.0 °F 67% 30.56 in 10.0 mi Calm Calm - N/A   Clear
9:35 AM 17.6 °F - 1.4 °F 49% 30.55 in 10.0 mi Calm Calm - N/A   Clear
9:55 AM 21.2 °F - 8.6 °F 58% 30.54 in 10.0 mi Calm Calm - N/A   Clear
10:15 AM 21.2 °F - 8.6 °F 58% 30.53 in 10.0 mi Calm Calm - N/A   Clear
10:35 AM 24.8 °F - 10.4 °F 54% 30.52 in 10.0 mi Calm Calm - N/A   Clear
10:55 AM 26.6 °F 17.5 °F 12.2 °F 55% 30.50 in 10.0 mi South 9.2 mph - N/A   Clear
11:15 AM 28.4 °F 18.5 °F 12.2 °F 51% 30.49 in 10.0 mi SSW 11.5 mph - N/A   Clear
11:35 AM 28.4 °F 18.5 °F 12.2 °F 51% 30.47 in 10.0 mi SSW 11.5 mph - N/A   Clear
11:55 AM 28.4 °F 17.5 °F 12.2 °F 51% 30.46 in 10.0 mi South 13.8 mph - N/A   Clear
12:15 PM 28.4 °F 19.7 °F 14.0 °F 55% 30.44 in 10.0 mi South 9.2 mph - N/A   Clear
12:35 PM 30.2 °F 20.2 °F 14.0 °F 51% 30.44 in 10.0 mi SSW 12.7 mph - N/A   Clear
12:55 PM 30.2 °F 21.3 °F 14.0 °F 51% 30.42 in 10.0 mi South 10.4 mph - N/A   Clear
1:15 PM 30.2 °F 21.9 °F 14.0 °F 51% 30.42 in 10.0 mi South 9.2 mph - N/A   Clear
1:35 PM 30.2 °F 22.6 °F 15.8 °F 55% 30.42 in 10.0 mi South 8.1 mph - N/A   Clear
1:55 PM 30.2 °F 23.4 °F 15.8 °F 55% 30.41 in 10.0 mi SW 6.9 mph - N/A   Clear
2:15 PM 30.2 °F 21.3 °F 15.8 °F 55% 30.42 in 10.0 mi South 10.4 mph - N/A   Clear
2:35 PM 32.0 °F 24.2 °F 14.0 °F 48% 30.41 in 10.0 mi SSW 9.2 mph - N/A   Clear
2:55 PM 32.0 °F 24.8 °F 15.8 °F 51% 30.40 in 10.0 mi South 8.1 mph - N/A   Clear
3:15 PM 32.0 °F 23.6 °F 17.6 °F 55% 30.39 in 10.0 mi South 10.4 mph - N/A   Clear
3:35 PM 33.8 °F 26.4 °F 17.6 °F 52% 30.38 in 10.0 mi South 9.2 mph - N/A   Clear
3:55 PM 33.8 °F 25.3 °F 17.6 °F 52% 30.38 in 10.0 mi South 11.5 mph - N/A   Clear
4:15 PM 32.0 °F 24.8 °F 17.6 °F 55% 30.37 in 10.0 mi South 8.1 mph - N/A   Clear
4:35 PM 32.0 °F 24.2 °F 17.6 °F 55% 30.37 in 10.0 mi South 9.2 mph - N/A   Clear
4:55 PM 32.0 °F 23.6 °F 17.6 °F 55% 30.36 in 10.0 mi South 10.4 mph - N/A   Clear
5:15 PM 32.0 °F 23.6 °F 17.6 °F 55% 30.36 in 10.0 mi South 10.4 mph - N/A   Clear
5:35 PM 32.0 °F 22.5 °F 17.6 °F 55% 30.35 in 10.0 mi South 12.7 mph - N/A   Clear
5:55 PM 32.0 °F 23.0 °F 15.8 °F 51% 30.36 in 10.0 mi South 11.5 mph - N/A   Clear
6:15 PM 32.0 °F 22.5 °F 15.8 °F 51% 30.35 in 10.0 mi SSW 12.7 mph - N/A   Clear
6:35 PM 32.0 °F 24.2 °F 19.4 °F 60% 30.35 in 10.0 mi South 9.2 mph - N/A   Clear
6:55 PM 30.2 °F 22.6 °F 19.4 °F 64% 30.35 in 10.0 mi SSW 8.1 mph - N/A   Clear
7:15 PM 30.2 °F 22.6 °F 21.2 °F 69% 30.35 in 10.0 mi SSW 8.1 mph - N/A   Clear
7:35 PM 30.2 °F 21.3 °F 23.0 °F 75% 30.36 in 10.0 mi SSW 10.4 mph - N/A   Clear
7:55 PM 30.2 °F 23.4 °F 23.0 °F 75% 30.36 in 10.0 mi SSW 6.9 mph - N/A   Clear
8:15 PM 30.2 °F 25.4 °F 23.0 °F 75% 30.36 in 10.0 mi SSW 4.6 mph - N/A   Clear
8:35 PM 30.2 °F 25.4 °F 23.0 °F 75% 30.35 in 10.0 mi SSW 4.6 mph - N/A   Clear
8:55 PM 28.4 °F 23.3 °F 21.2 °F 74% 30.34 in 10.0 mi South 4.6 mph - N/A   Clear
9:15 PM 26.6 °F - 21.2 °F 80% 30.33 in 10.0 mi Calm Calm - N/A   Clear
9:35 PM 24.8 °F - 19.4 °F 80% 30.34 in 10.0 mi Calm Calm - N/A   Clear
9:55 PM 24.8 °F - 21.2 °F 86% 30.33 in 10.0 mi Calm Calm - N/A   Clear
10:15 PM 24.8 °F - 21.2 °F 86% 30.34 in 10.0 mi Calm Calm - N/A   Clear
10:35 PM 26.6 °F 22.6 °F 23.0 °F 86% 30.33 in 10.0 mi SSW 3.5 mph - N/A   Scattered Clouds
10:55 PM 26.6 °F 19.1 °F 23.0 °F 86% 30.33 in 10.0 mi SSW 6.9 mph - N/A   Scattered Clouds
11:15 PM 33.8 °F 27.0 °F 28.4 °F 81% 30.31 in 10.0 mi South 8.1 mph - N/A   Mostly Cloudy
11:35 PM 35.6 °F 29.9 °F 28.4 °F 75% 30.30 in 10.0 mi SSW 6.9 mph - N/A   Overcast
11:55 PM 37.4 °F 31.4 °F 28.4 °F 70% 30.29 in 10.0 mi SSW 8.1 mph - N/A   Overcast